TimeEET,TemperatureF,Dew PointF,Humidity,Sea Level PressureIn,VisibilityMPH,Wind Direction,Wind SpeedMPH,Gust SpeedMPH,PrecipitationIn,Events,Conditions,WindDirDegrees,DateUTC
12:50 AM,66.2,51.8,60,29.83,6.2,SE,9.2,-,N/A,,Mostly Cloudy,130,2012-10-31 22:50:00
1:50 AM,66.2,51.8,60,29.83,6.2,SSE,8.1,-,N/A,,Mostly Cloudy,160,2012-10-31 23:50:00
2:00 AM,66,52,52,29.84,6,SSE,8.1,,,,Partly Cloudy,160,2012-11-01 00:00:00
2:50 AM,66.2,53.6,64,29.83,6.2,SE,13.8,-,N/A,,Mostly Cloudy,140,2012-11-01 00:50:00
3:20 AM,66.2,53.6,64,29.83,6.2,SE,13.8,-,N/A,,Mostly Cloudy,140,2012-11-01 01:20:00
3:50 AM,66.2,53.6,64,29.83,6.2,SE,12.7,-,N/A,,Overcast,140,2012-11-01 01:50:00
4:50 AM,64.4,53.6,68,29.80,6.2,SE,12.7,-,N/A,,Overcast,140,2012-11-01 02:50:00
5:50 AM,66.2,53.6,64,29.74,6.2,SSE,10.4,-,N/A,,Overcast,150,2012-11-01 03:50:00
6:20 AM,66.2,53.6,64,29.74,6.2,SSE,10.4,-,N/A,,Overcast,150,2012-11-01 04:20:00
6:50 AM,66.2,53.6,64,29.74,6.2,SSE,9.2,-,N/A,,Overcast,150,2012-11-01 04:50:00
7:20 AM,66.2,55.4,68,29.74,6.2,SE,5.8,-,N/A,,Light Drizzle,140,2012-11-01 05:20:00
7:50 AM,66.2,55.4,68,29.74,6.2,Calm,Calm,-,N/A,,Mostly Cloudy,0,2012-11-01 05:50:00
8:00 AM,66,55,59,29.75,6,Calm,Calm,,,,Partly Cloudy,,2012-11-01 06:00:00
8:20 AM,66.2,55.4,68,29.74,6.2,Calm,Calm,-,N/A,,Mostly Cloudy,0,2012-11-01 06:20:00
8:50 AM,69.8,55.4,60,29.74,6.2,SE,10.4,-,N/A,,Mostly Cloudy,140,2012-11-01 06:50:00
9:20 AM,71.6,55.4,57,29.74,6.2,SSE,13.8,-,N/A,,Mostly Cloudy,160,2012-11-01 07:20:00
9:50 AM,71.6,55.4,57,29.71,6.2,SSE,12.7,-,N/A,,Mostly Cloudy,150,2012-11-01 07:50:00
10:20 AM,71.6,55.4,57,29.71,6.2,SSE,12.7,-,N/A,,Mostly Cloudy,150,2012-11-01 08:20:00
10:50 AM,71.6,57.2,60,29.71,6.2,SSE,11.5,-,N/A,,Mostly Cloudy,160,2012-11-01 08:50:00
11:20 AM,71.6,57.2,60,29.71,6.2,SSE,12.7,-,N/A,,Overcast,150,2012-11-01 09:20:00
11:50 AM,73.4,57.2,57,29.68,6.2,SSE,13.8,-,N/A,,Overcast,150,2012-11-01 09:50:00
12:20 PM,73.4,59.0,61,29.68,6.2,SSE,13.8,-,N/A,,Mostly Cloudy,150,2012-11-01 10:20:00
12:50 PM,75.2,57.2,53,29.68,6.2,SSE,13.8,-,N/A,,Mostly Cloudy,160,2012-11-01 10:50:00
1:20 PM,77.0,59.0,54,29.68,6.2,South,11.5,-,N/A,,Overcast,170,2012-11-01 11:20:00
1:50 PM,75.2,60.8,61,29.68,6.2,South,12.7,-,N/A,,Overcast,180,2012-11-01 11:50:00
2:00 PM,76,60,49,29.69,6,South,12.7,,,,Overcast,180,2012-11-01 12:00:00
2:20 PM,75.2,60.8,61,29.68,6.2,SSE,11.5,-,N/A,,Overcast,160,2012-11-01 12:20:00
2:50 PM,77.0,62.6,61,29.68,6.2,SSE,13.8,-,N/A,,Overcast,160,2012-11-01 12:50:00
3:20 PM,75.2,62.6,65,29.68,5.0,South,10.4,-,N/A,Rain,Light Rain,170,2012-11-01 13:20:00
3:50 PM,66.2,59.0,78,29.68,6.2,Calm,Calm,-,N/A,,Mostly Cloudy,0,2012-11-01 13:50:00
4:20 PM,71.6,62.6,73,29.68,6.2,NNW,9.2,-,N/A,,Mostly Cloudy,330,2012-11-01 14:20:00
4:50 PM,66.2,59.0,78,29.71,6.2,North,12.7,-,N/A,,Overcast,360,2012-11-01 14:50:00
5:20 PM,62.6,59.0,88,29.71,6.2,NNE,17.3,-,N/A,,Mostly Cloudy,20,2012-11-01 15:20:00
5:50 PM,64.4,59.0,83,29.71,6.2,NNE,10.4,-,N/A,,Mostly Cloudy,30,2012-11-01 15:50:00
6:20 PM,64.4,59.0,83,29.71,6.2,Calm,Calm,-,N/A,,Mostly Cloudy,0,2012-11-01 16:20:00
6:50 PM,66.2,59.0,78,29.68,6.2,Calm,Calm,-,N/A,,Mostly Cloudy,0,2012-11-01 16:50:00
7:20 PM,68.0,60.8,78,29.68,6.2,ESE,6.9,-,N/A,,Mostly Cloudy,120,2012-11-01 17:20:00
7:50 PM,68.0,62.6,83,29.68,6.2,Calm,Calm,-,N/A,,Mostly Cloudy,0,2012-11-01 17:50:00
8:00 PM,68,62,75,29.70,6,Calm,Calm,,,,Mostly Cloudy,,2012-11-01 18:00:00
8:20 PM,71.6,68.0,88,29.68,6.2,South,6.9,-,N/A,,Mostly Cloudy,170,2012-11-01 18:20:00
8:50 PM,73.4,68.0,83,29.71,6.2,South,6.9,-,N/A,,Mostly Cloudy,190,2012-11-01 18:50:00
9:20 PM,71.6,68.0,88,29.71,6.2,South,6.9,-,N/A,,Mostly Cloudy,190,2012-11-01 19:20:00
10:20 PM,68.0,64.4,88,29.74,6.2,SW,4.6,-,N/A,,Mostly Cloudy,220,2012-11-01 20:20:00
10:50 PM,66.2,62.6,88,29.74,6.2,Calm,Calm,-,N/A,,Partly Cloudy,0,2012-11-01 20:50:00